Zurück zum Katalog

LES 1

AktivKommunikationMEO
NORAD 1002·PAYLOAD·🇺🇸 United States

Gestartet Feb 11, 1965 von Cape Canaveral Space Force Station

Loading…

Nächste Überflüge (nächste 24 Stunden)

TLE

AktuellSource: Space-Track

Epoche: Sep 14, 2026, 04:22 UTC

1 01002U 65008C   26257.18263602  .00000017  00000-0  11356-2 0  9998
2 01002  32.1398 193.8845 0015302 231.8645 128.0472  9.88355025224994

Verfolge LES 1 in Echtzeit mit AllMySat

Download on the App Store